This demonstration page uses our WeatherBlox Daily Observations layout. Learn more.

Left ArrowRight Arrow

41.86663, -103.66717

Hourly Observations for November 28, 2021

Temp ( °F °C ) Dew Point ( °F °C ) Humidity (%) Winds ( mph kmh ) Pressure ( in mb ) Visibility ( mi km ) Precip ( " mm )
12:53 am 00:53 Clear 27 -2.8 19 -7.2 72 72 ENE 6 9 30.23 1024 10 16 0.00 0.00
1:53 am 01:53 Clear 24 -4.4 18 -7.8 77 77 NE 6 9 30.23 1024 10 16 0.00 0.00
2:53 am 02:53 Clear 24 -4.4 17 -8.3 75 75 E 5 7 30.21 1023 10 16 0.00 0.00
3:53 am 03:53 Clear 26 -3.3 19 -7.2 75 75 Calm 30.20 1023 10 16 0.00 0.00
4:53 am 04:53 Clear 24 -4.4 19 -7.2 81 81 N 5 7 30.21 1023 10 16 0.00 0.00
5:53 am 05:53 Partly Cloudy 22 -5.6 17 -8.3 82 82 NW 5 7 30.24 1024 10 16 0.00 0.00
6:53 am 06:53 Clear 22 -5.6 17 -8.3 82 82 NNW 3 6 30.23 1024 10 16 0.00 0.00
7:53 am 07:53 Sunny 26 -3.3 20 -6.7 78 78 Calm 30.24 1024 10 16 0.00 0.00
8:53 am 08:53 Sunny 35 1.7 24 -4.4 64 64 Calm 30.21 1023 10 16 0.00 0.00
9:53 am 09:53 Sunny 45 7.2 28 -2.2 52 52 NW 6 9 30.20 1023 10 16 0.00 0.00
10:53 am 10:53 Sunny 53 11.7 30 -1.1 41 41 NW 8 13 30.16 1021 10 16 0.00 0.00
11:53 am 11:53 Sunny 56 13.3 30 -1.1 37 37 NW 6 9 30.12 1020 10 16 0.00 0.00
12:53 pm 12:53 Sunny 63 17.2 31 -0.6 30 30 WNW 12 19 30.08 1019 10 16 0.00 0.00
1:53 pm 13:53 Sunny 66 18.9 31 -0.6 27 27 NW 14 22 30.06 1018 10 16 0.00 0.00
2:53 pm 14:53 Sunny 66 18.9 31 -0.6 27 27 W 18 30 30.04 1017 10 16 0.00 0.00
3:53 pm 15:53 Sunny 63 17.2 30 -1.1 29 29 W 15 24 30.05 1018 10 16 0.00 0.00
4:53 pm 16:53 Clear 57 13.9 29 -1.7 34 34 WNW 8 13 30.09 1019 10 16 0.00 0.00
5:53 pm 17:53 Clear 53 11.7 29 -1.7 40 40 W 10 17 30.10 1019 10 16 0.00 0.00
6:53 pm 18:53 Clear 53 11.7 28 -2.2 38 38 WNW 12 19 30.09 1019 10 16 0.00 0.00
7:53 pm 19:53 Clear 42 5.6 27 -2.8 55 55 NW 8 13 30.13 1020 10 16 0.00 0.00
8:53 pm 20:53 Clear 48 8.9 28 -2.2 46 46 WNW 14 22 30.07 1018 10 16 0.00 0.00
9:53 pm 21:53 Clear 52 11.1 28 -2.2 40 40 WNW 13 20 30.04 1017 10 16 0.00 0.00
10:53 pm 22:53 Clear 42 5.6 27 -2.8 55 55 WNW 9 15 30.06 1018 10 16 0.00 0.00
11:53 pm 23:53 Clear 37 2.8 26 -3.3 65 65 NW 9 15 30.06 1018 10 16 0.00 0.00

Powered by AerisWeather